DELTA 1 DEB, 10845

Orbit data source: Space-Track

DELTA 1 DEB, 10845 is space debris in SSO originally from a launch on Thu, 29 Jul 1976 UTC launched from the Air Force Western Test Range (AFWTR). Debris objects in space refer to the collection of defunct objects orbiting the Earth. Examples of debris include non-operational satellites, rocket bodies, and fragments generated from explosions, collisions, or faulty payload assembly.

Loading next visibility...
Identifier
10845, 1976-077CR
Orbit
SSO
Country
Flag of USUS
Related business
Manufacturer
Unknown
Mission
Spacecraft
Bus & Motor
Unknown
Mass
Unknown
Launch date (UTC)
1976-07-29 (50 years ago)
Launch vehicle
Unknown
Launch site
Air Force Western Test Range (AFWTR)
Object type
Payload
Rocket body
Debris
Shape & HBR
Unknown shape, 0.1 m
Radar Cross Section
Medium (>0.1 m² and <1 m²)

Expand to show TLE details & history
Last TLE update: 23 hours ago

TLE from 23 hours ago
0 DELTA 1 DEB
1 10845U 76077CR  26255.24368998 -.00000072  00000-0 -31557-3 0  9999
2 10845 102.3443 352.6731 0175744  60.0524 327.2171 12.10182322213998
Epoch: 2026-09-12T05:50Z
TLE epoch observation values (Epoch: 2026-09-12T05:50:54.814Z)
Latitude
25.54137°
Longitude
-92.28414°
Altitude
1,520.641 km
Speed
7.159 km/s
True Right ascension
23h 06m 47s
True Declination
25° 25' 15"
Sunlit
Object was in full shadow at epoch
Visualization orbit readout
Latitude
Unknown
Longitude
Unknown
Altitude
Unknown
Speed
Unknown
Apparent Right ascension
Unknown
Apparent Declination
Unknown
Sunlit
N/A
Visualization observer readout
Local Sidereal Time
21:45:35
Azimuth
Unknown
Elevation
Unknown
Doppler factor
Unknown
Orbital elements
Apogee altitude
1,774.02 km
Perigee altitude
1,492.43 km
Semi-major axis
8,011.362 km
Eccentricity
0.01757
Inclination
102.3443°
RAAN
352.6731°
Arg. of periapsis
60.0524°
True anomaly
326.10624°
Mean anomaly
327.2171°
Eccentric anomaly
326.66373°
Mean motion
3.0268 °/min
Orbital period
118.94 mins
BSTAR
-0.00031557
Loading maneuver chart data...
Computing Atmospheric mass density...
Loading historical data...
Loading historical data...
Loading historical data...
Loading historical data...
Loading historical data...
Loading historical data...
Loading historical data...

Documentation

Showing up to 5 results
|